www.pogodaiklimat.ru

Погода и климат >> Архив погоды >> Пакистан >> Лахор


ПОГОДА в Лахоре

  • Прогноз погоды в Лахоре
  • Монитор погоды в Лахоре

АРХИВ ПОГОДЫ в Лахоре

Время (UTC), дата Ветер
(напр.,м/с)
 
Видим.   Явления Облачность Т
(С)
Тd
(С)
f
(%)
Тe
(С)
Тes
(С)
Комфортность P
(гПа)
Po
(гПа)
Тmin
(С)
Tmax
(С)
R
(мм)
R24
(мм)
S
(см)
03 14.07 СЗ 1 4000 м гроза, ливневой дождь 10/6 900 м
[Cb cap As op]
+23.0 +23.0 100 +32 +32 очень
душно
997.0 972.8 +22.3 34
06 14.07 штиль 0 4000 м в посл. час морось {гроза, дождь} 8/4 1200 м
[Sc Ac As]
+25.0 +24.3 96 +35 +44 очень
душно
997.1 973.0 6
09 14.07 штиль 0 4000 м дым 9/6 1200 м
[Sc As op]
+27.0 +24.1 84 +37 +40 очень
душно
996.9 1000.0
12 14.07 штиль 0 4000 м дым 5/5 1200 м
[Sc Ac trans]
+29.0 +24.8 78 +41 +44 опасность
перегрева
995.4 971.7 +29.5
15 14.07 штиль 0 4000 м дым ясно +27.5 +23.9 81 +38 +38 очень
душно
995.7 1000.0
18 14.07 штиль 0 4000 м дым ясно +27.0 +24.1 84 +37 +37 очень
душно
996.9 973.0
21 14.07 штиль 0 4000 м дым 6/4 1200 м
[Sc Ac trans]
+26.0 +23.8 88 +36 +36 очень
душно
996.5 1000.0
00 15.07 штиль 0 4000 м дым 5/3 1200 м
[Sc Ac trans]
+25.5 +23.3 88 +34 +34 очень
душно
995.8 971.8
03 15.07 СЗ 7 2000 м гроза, ливневой дождь {морось} 10/6 900 м
[Cb cap As op]
+26.0 +23.8 88 +36 +36 очень
душно
996.6 972.6 +22.5 0.3
06 15.07 штиль 0 4000 м дым {гроза, дождь} 6/4 1200 м
[Sc Ac As]
+29.0 +24.8 78 +41 +54 опасность
перегрева
995.8 972.1
09 15.07 В 1 4000 м дым 5/5 1200 м
[Sc Ac As]
+30.0 +24.3 72 +42 +53 опасность
перегрева
995.2 1000.0
12 15.07 ЮВ 3 4000 м дым 9/5 1200 м
[Sc Ac As]
+30.0 +25.1 75 +43 +44 опасность
перегрева
994.4 970.9 +30.6
15 15.07 С 1 4000 м дым 9/5 1200 м
[Sc Ac As]
+29.5 +25.3 78 +43 +43 опасность
перегрева
995.3 1000.0
18 15.07 В 1 4000 м дым 9/8 300 м
[Sc Ac As]
+29.0 +25.5 81 +43 +43 опасность
перегрева
996.8 973.2
21 15.07 ЮВ 2 4000 м дым 1/0
[Ac trans]
+27.0 +24.1 84 +37 +37 очень
душно
995.3 1000.0
00 16.07 С 1 2000 м гроза с градом 10/6 900 м
[Cb calv As trans]
+23.0 +23.0 100 +32 +32 очень
душно
997.0 972.9 51
03 16.07 В 1 2000 м в посл. час морось {гроза, дождь} 9/5 1200 м
[Sc Ac As]
+24.0 +24.0 100 +33 +34 очень
душно
998.2 974.0 +21.5 19
06 16.07 штиль 0 4000 м гроза, ливневой дождь 10/5 900 м
[Cb cap As op]
+24.0 +24.0 100 +33 +36 очень
душно
1000.7 976.6 17
09 16.07 штиль 0 4000 м слаб. дождь {гроза} 10/10 300 м
[Cb cap As op]
+25.5 +24.8 96 +36 +36 очень
душно
999.9 1000.0 6
12 16.07 штиль 0 4000 м гроза, ливневой дождь 10/5 900 м
[Cb calv As op]
+23.5 +23.5 100 +32 +32 очень
душно
999.7 975.5 +26.5 50
15 16.07 штиль 0 4000 м дым {гроза, дождь} 9/4 1200 м
[Sc As op]
+23.5 +23.5 100 +32 +32 очень
душно
1000.3 1000.0 2
18 16.07 штиль 0 4000 м дым 6/4 300 м
[Sc Ac trans]
+24.0 +24.0 100 +33 +33 очень
душно
1001.3 977.1
21 16.07 штиль 0 4000 м дым 6/3 1200 м
[Sc Ac trans]
+23.0 +22.0 94 +31 +31 очень
душно
1001.6 1000.0
00 17.07 штиль 0 4000 м дым ясно +22.5 +21.0 91 +29 +29 очень
душно
1000.6 976.3
03 17.07 штиль 0 4000 м дым 8/5 1140 м
[Cu Sc Ac trans]
+23.5 +22.0 91 +30 +33 очень
душно
1001.4 977.2 +22.3
06 17.07 штиль 0 4000 м дым 6/5 300 м
[Cu med, cong Ac trans]
+26.5 +25.1 92 +38 +51 опасность
солнечного
удара
1001.9 978.0
09 17.07 штиль 0 4000 м дым 8/4 1200 м
[Cu Sc Ac trans]
+28.0 +24.4 81 +39 +48 очень
душно
1000.5 976.4
12 17.07 штиль 0 4000 м дым 6/6 1140 м
[Cu Sc]
+30.0 +25.1 75 +43 +46 опасность
перегрева
999.0 975.3 +30.3
15 17.07 штиль 0 4000 м дым 4/0
[Ac trans]
+29.0 +24.8 78 +41 +41 опасность
перегрева
998.7 974.7
18 17.07 штиль 0 4000 м дым ясно +28.0 +25.2 85 +41 +41 опасность
перегрева
999.8 976.0
21 17.07 штиль 0 4000 м дым ясно +27.0 +24.9 88 +39 +39 очень
душно
999.5 1000.0
00 18.07 штиль 0 4000 м дым ясно +27.0 +25.6 92 +40 +40 очень
душно
999.9 976.0
03 18.07 штиль 0 4000 м дым 4/4 1140 м
[Cu Sc]
+28.0 +25.2 85 +41 +47 опасность
перегрева
1000.1 976.3 +23.1
06 18.07 штиль 0 4000 м дым 4/4 1260 м
[Cu med, cong]
+31.5 +25.2 69 +45 +62 опасность
перегрева
1001.2 977.6
09 18.07 ЮВ 1 4000 м дым 5/5 1260 м
[Cu med, cong]
+33.0 +24.6 61 +46 +59 опасность
перегрева
999.7 1000.0
12 18.07 СВ 2 4000 м дым 8/6 1200 м
[Sc diur, vesp Ac trans]
+33.0 +24.6 61 +46 +47 опасность
перегрева
998.3 974.9 +33.3
15 18.07 штиль 0 4000 м дым 3/0
[Ac trans]
+31.0 +25.4 72 +45 +45 опасность
перегрева
998.8 975.0
18 18.07 В 1 4000 м дым 3/0
[Ac trans]
+30.5 +25.6 75 +45 +45 опасность
перегрева
999.6 975.9
21 18.07 штиль 0 4000 м дым 4/0
[Ac trans]
+30.0 +25.8 78 +45 +45 опасность
перегрева
998.9 1000.0
00 19.07 штиль 0 4000 м дым 5/3 1200 м
[Sc Ac trans]
+28.5 +25.7 85 +42 +42 опасность
перегрева
999.3 975.6
03 19.07 СВ 1 4000 м дым 4/0
[Ci fib]
+29.5 +26.0 81 +44 +52 опасность
перегрева
1001.3 977.6 +27.9
06 19.07 В 2 4000 м дым 5/3 1260 м
[Sc Ac trans]
+31.5 1001.8 977.9
09 19.07 В 1 4000 м дым 5/0 1260 м
[Ac trans Ci fib]
+33.0 +24.6 61 +46 +61 опасность
перегрева
1001.9 1000.0
12 19.07 СВ 1 4000 м дым 8/4 1200 м
[Sc Ac trans]
+32.0 +25.0 67 +46 +47 опасность
перегрева
999.4 975.7 +33.7
15 19.07 штиль 0 4000 м дым 3/3 1200 м
[Sc]
+30.5 +24.9 72 +44 +44 опасность
перегрева
1000.5 1000.0
18 19.07 штиль 0 4000 м дым ясно +29.5 +25.3 78 +43 +43 опасность
перегрева
1001.0 977.3
21 19.07 штиль 0 4000 м дым ясно +28.5 +25.0 81 +41 +41 опасность
перегрева
1002.0 1000.0
00 20.07 штиль 0 4000 м дым ясно +28.0 +25.2 85 +41 +41 опасность
перегрева
1001.6 977.8
03 20.07 штиль 0 4000 м дым ясно +29.5 +25.3 78 +43 +53 опасность
перегрева
1002.9 979.2 +27.4
06 20.07 штиль 0 4000 м дым 8/4 1200 м
[Sc Ac As]
+32.5 +25.5 67 +47 +56 опасность
перегрева
1002.7 979.2
09 20.07 С 1 4000 м дым 9/4 1200 м
[Sc Ac As]
+34.5 +25.5 60 +49 +53 опасность
перегрева
1001.1 1000.0
12 20.07 ЮВ 1 4000 м слаб. морось {гроза, дождь} 9/4 1200 м
[Sc Ac As]
+25.5 +24.1 92 +35 +36 очень
душно
1000.3 976.3 +34.7 18
15 20.07 штиль 0 4000 м дым {морось} 5/3 1200 м
[Sc Ac trans]
+27.5 +25.4 88 +40 +40 очень
душно
999.4 1000.0 1
18 20.07 штиль 0 4000 м дым 4/0
[Ac trans]
+27.0 +24.1 84 +37 +37 очень
душно
1000.9 977.0
21 20.07 штиль 0 4000 м дым 4/0
[Ac trans]
+27.0 +24.1 84 +37 +37 очень
душно
1000.3 1000.0

 

Местоположение метеостанции Лахор (Пакистан): широта 31.55 долгота 74.33 высота над уровнем моря 215 м.

В архиве по умолчанию представлена погода в Лахоре за последнюю неделю. Архивные данные за месяц целиком и за предыдущие месяцы, начиная с января 2011 года, Вы можете получить, выбрав интересующий диапазон дат из раскрывающегося списка и нажав кнопку "Ввод!".


*Определитесь, кто Вы:
робот инопланетянин человек

Внимание! Время в таблицах - всемирное. Для получения местного времени необходимо прибавить поправку, которая равна 5 ч.

Смотрите также архив погоды в соседних городах и на ближайших метеорологических станциях:

Погода в Лахор аэропорту (Пакистан) (7 км)
Погода в Касуре (Пакистан) (52 км)
Погода в Амритсаре (Пенджаб, Индия) (52 км)
Погода в Гуджранвале (Пакистан) (70 км)
Погода в Наровале (Пакистан) (80 км)
Погода в Хафизабаде (Пакистан) (87 км)
Погода в Сиялкоте (Пакистан) (107 км)
Погода в Гуджрате (Пакистан) (111 км)
Погода в Сиалкот аэропорту (Пакистан) (113 км)
Погода в Фейсалабаде (Пакистан) (117 км)

Пояснения к столбцам:

Ветер - указаны скорость ветра в м/с - средняя за 10 мин, порывы в срок и между сроками (в фигурных скобках) и направление, откуда дует ветер: С - северный, СВ - северо-восточный, В - восточный, ЮВ - юго-восточный, Ю - южный, ЮЗ - юго-западный, З - западный, СЗ - северо-западный.
Видимость - горизонтальная дальность видимости в метрах или километрах. При видимости от 1 до 10 км при отсутствии осадков обычно наблюдается дымка, при ухудшении видимости до 1 км и менее - туман. В сухую погоду видимость может ухудшаться дымом, пылью или мглою.
Явления - указаны атмосферные явления, наблюдавшиеся в срок или в последний час перед сроком; фигурными скобками обозначены явления, наблюдавшиеся между сроками (за 1-3 часа до срока); квадратными скобками обозначены град или гололедные отложения с указанием их диаметра в мм.
Облачность - указаны через наклонную черту общая и нижняя облачность в баллах и высота нижней границы облаков в метрах; квадратными скобками обозначены формы облаков: Ci - перистые, Cs - перисто-слоистые, Cc - перисто-кучевые, Ac - высококучевые, As - высокослоистые, Sc - слоисто-кучевые, Ns - слоисто-дождевые, Cu - кучевые, Cb - кучево-дождевые. Подробнее классификацию облаков см. в Атласе облаков (PDF).
T - Температура воздуха - температура, измеренная на высоте 2 м над землей.
Td - Температура точки росы - температура, при понижении до которой содержащийся в воздухе водяной пар достигнет насыщения.
f - Относительная влажность воздуха - влажноcть воздуха, измеренная на высоте 2 м над землей.
Te - Эффективная температура - температура, которую ощущает одетый по сезону человек в тени. Характеристика душности погоды. При расчете учитывается влияние влажности воздуха и скорости ветра на теплоощущения человека.
Tes - Эффективная температура на солнце - температура, которую ощущает человек, с поправкой на солнечный нагрев. Характеристика знойности погоды. Зависит от высоты солнца над горизонтом, облачности и скорости ветра. Ночью, в пасмурную погоду, а также при ветре 12 м/с и более поправка равна нулю.
P - Атмосферное давление - приведенное к уровню моря атмосферное давление.
Po - Атмосферное давление - измеренное на уровне метеостанции атмосферное давление.
Tmin - Минимальная температура - минимум температуры воздуха на высоте 2 м над землей.
Tmax - Максимальная температура - максимум температуры воздуха на высоте 2 м над землей.
R - Количество осадков - Количество выпавших осадков за период времени, мм. При наведении курсора мыши на число - период времени, за который выпало указанное количество осадков.
R24 - Количество осадков - Количество выпавших осадков за 24 часа, мм.
S - Снежный покров - Высота снежного покрова, см. При наведении курсора мыши на число - состояние снежного покрова и степень покрытия местности в баллах.